[[{"header":{"parameterUnit":"m.s-1","parameterCategory":1,"la1":30.2992,"la2":30.254,"lo1":-89.0895,"lo2":-89.0443,"dy":0.0025,"dx":0.0025,"nx":19,"ny":19,"refTime":"2026-03-26T09:00:00:Z","depth":0,"parameterNumber":2,"parameterNumberName":"U-component_of_WINDS"},"data":[0,0,0,1.2166,1.2167,1.2189,1.2189,1.2213,1.2213,0,0,0,0,0,0,0,0,0,0,0,1.2157,1.2157,1.2166,1.2167,1.2189,1.2189,1.2213,1.2213,0,0,0,0,0,0,0,0,0,0,0,1.2157,1.2157,1.2157,1.2167,1.2189,1.2189,1.2213,1.2198,0,0,0,0,0,0,0,0,0,0,1.2177,1.2166,1.2157,1.2157,1.2167,1.2189,1.2189,1.2197,1.2199,1.2201,0,1.2203,0,1.2208,1.2215,1.2215,0,0,0,1.2169,1.2164,1.2173,1.2157,1.2167,1.2189,1.2179,1.2198,1.22,1.2203,1.2203,1.2204,1.2209,1.2215,1.2215,1.2224,1.2224,0,0,1.2167,1.216,1.2172,1.2174,1.217,1.2179,1.218,1.2199,1.2198,1.2203,1.2205,1.2209,1.2215,1.2215,1.2224,1.2224,0,0,0,1.2163,1.2159,1.2167,1.2173,1.2177,1.2179,1.2181,1.2198,1.2201,1.2205,1.2209,1.2215,1.2215,1.2224,1.2224,1.2214,0,0,0,1.2162,1.2156,1.2166,1.2161,1.2177,1.2188,1.2179,1.2199,1.2202,1.2209,1.2215,1.2215,1.2224,1.2224,1.2215,1.2211,0,0,0,1.2156,1.2155,1.2158,1.2161,1.217,1.2187,1.2192,1.22,1.2204,1.2215,1.2215,1.2224,1.2224,1.2215,1.2212,1.2212,0,0,0,1.2148,1.2148,1.2157,1.2159,1.217,1.2181,1.2192,1.2201,1.2208,1.2215,1.2224,1.2224,1.2215,1.2212,1.2212,1.2211,1.2209,0,0,1.2144,1.2147,1.2149,1.2158,1.2166,1.2179,1.2185,1.2199,1.2207,1.2218,1.2218,1.2215,1.2212,1.2212,1.2203,1.2202,0,0,0,1.2145,1.2146,1.215,1.2157,1.2168,1.2178,1.2191,1.2197,1.2206,1.2211,1.2215,1.2213,1.2214,1.2213,1.2212,1.2213,1.2223,1.2223,1.2223,1.2128,1.2138,1.2142,1.2156,1.2162,1.2177,1.2184,1.2193,1.2201,1.2202,1.2206,1.2199,1.2198,1.2198,1.2199,1.2205,1.2205,1.2205,1.2205,1.2123,1.2126,1.2138,1.2146,1.2157,1.2164,1.2178,1.2184,1.2192,1.2197,1.2198,1.2203,1.2196,1.2198,1.2205,1.2205,1.2205,1.2205,1.2205,1.2113,1.2117,1.2124,1.2136,1.2144,1.2157,1.2165,1.2174,1.2183,1.2184,1.2189,1.2189,1.2191,1.2186,1.2186,1.2186,1.2186,1.2186,1.2186,1.21,1.2108,1.2114,1.2126,1.2132,1.2142,1.2157,1.2164,1.2173,1.218,1.218,1.2188,1.2193,1.2195,1.2186,1.2186,1.2186,1.2186,1.2186,1.2092,1.2096,1.2104,1.211,1.2126,1.2134,1.2146,1.2159,1.2165,1.2169,1.2177,1.2179,1.2184,1.2184,1.2186,1.2175,1.2175,1.2175,1.2175,1.2085,1.2088,1.2099,1.2108,1.2119,1.2131,1.214,1.2153,1.2165,1.217,1.2173,1.2176,1.2176,1.218,1.2181,1.2182,1.2171,1.2171,1.2171,1.2081,1.2085,1.2091,1.2104,1.2118,1.2129,1.2138,1.2149,1.2164,1.2171,1.2175,1.2175,1.2179,1.2179,1.2186,1.2188,1.219,0,0]},{"header":{"parameterUnit":"m.s-1","parameterCategory":1,"la1":30.2992,"la2":30.254,"lo1":-89.0895,"lo2":-89.0443,"dy":0.0025,"dx":0.0025,"nx":19,"ny":19,"refTime":"2026-03-26T09:00:00:Z","depth":0,"parameterNumber":3,"parameterNumberName":"V-component_of_WINDS"},"data":[0,0,0,2.8916,2.8917,2.8968,2.8968,2.9016,2.9016,0,0,0,0,0,0,0,0,0,0,0,2.8893,2.8894,2.8916,2.8917,2.8968,2.8968,2.9016,2.9016,0,0,0,0,0,0,0,0,0,0,0,2.8893,2.8894,2.8894,2.8917,2.8968,2.8968,2.9016,2.8983,0,0,0,0,0,0,0,0,0,0,2.8936,2.8909,2.8894,2.8894,2.8917,2.8967,2.8968,2.8982,2.8985,2.8987,0,2.8988,0,2.9003,2.9019,2.9019,0,0,0,2.8922,2.8906,2.8927,2.8894,2.8918,2.8967,2.8946,2.8984,2.8987,2.8991,2.8989,2.8991,2.9004,2.9019,2.9019,2.9015,2.9015,0,0,2.8919,2.8898,2.8924,2.8929,2.8923,2.8945,2.8948,2.8986,2.8982,2.8989,2.8993,2.9005,2.9019,2.9019,2.9016,2.9015,0,0,0,2.8908,2.8896,2.8916,2.8926,2.8937,2.8946,2.895,2.898,2.8989,2.8993,2.9005,2.9019,2.902,2.9016,2.9016,2.8982,0,0,0,2.8906,2.8889,2.8914,2.8902,2.8936,2.896,2.8942,2.8986,2.8991,2.9005,2.9019,2.902,2.9016,2.9016,2.8983,2.8968,0,0,0,2.8893,2.8888,2.8893,2.8901,2.8922,2.896,2.8971,2.8988,2.8998,2.9019,2.902,2.9017,2.9016,2.8985,2.8971,2.8959,0,0,0,2.8871,2.8863,2.8892,2.8886,2.8921,2.894,2.8971,2.8985,2.8999,2.9019,2.9016,2.9016,2.8985,2.8972,2.8961,2.8944,2.8936,0,0,2.8848,2.8859,2.8857,2.8885,2.8892,2.8933,2.8935,2.8967,2.8988,2.9004,2.9005,2.8983,2.8971,2.896,2.8903,2.8896,0,0,0,2.8843,2.8841,2.8847,2.886,2.8885,2.8904,2.8939,2.895,2.8965,2.8993,2.8977,2.8971,2.8965,2.8958,2.8952,2.8947,2.9012,2.9012,2.9012,2.8779,2.8806,2.8804,2.8836,2.8848,2.8883,2.8894,2.8915,2.894,2.8935,2.8939,2.8902,2.8893,2.8889,2.8883,2.8935,2.8935,2.8935,2.8935,2.8745,2.8745,2.8777,2.8787,2.8814,2.8822,2.8854,2.887,2.8879,2.8901,2.8897,2.8917,2.8881,2.8877,2.8932,2.8933,2.8933,2.8933,2.8934,2.8704,2.8709,2.8724,2.8743,2.8755,2.8788,2.8794,2.882,2.8844,2.884,2.8846,2.8846,2.8848,2.8842,2.8842,2.8841,2.8841,2.8841,2.8841,2.8655,2.8673,2.8676,2.8701,2.8711,2.8727,2.8761,2.8771,2.8788,2.8805,2.8806,2.8828,2.8874,2.8883,2.8839,2.8839,2.884,2.884,2.884,2.8607,2.8622,2.8627,2.8637,2.8666,2.8673,2.8706,2.8724,2.8736,2.8737,2.876,2.8791,2.8803,2.8808,2.8815,2.8757,2.8757,2.8757,2.8757,2.8571,2.858,2.8589,2.8603,2.862,2.8649,2.865,2.8674,2.8702,2.871,2.8723,2.8736,2.874,2.875,2.8755,2.8763,2.8692,2.8692,2.8692,2.8541,2.8553,2.855,2.8579,2.8603,2.8621,2.8622,2.8634,2.8669,2.869,2.8716,2.8719,2.8741,2.8747,2.8767,2.8775,2.879,0,0]}]]